Weather in Pulawy

Poland     51°25′02″N   21°58′20″E
temp.,
°C
wind,
m/s
gust,
m/s
humid.,
%
clouds,
%
prec.,
mm/h
press.,
hPa
HPBL,
m
16 may, sun
sun1623:00+11se2385100 0.0 100942
02:00+10se3889100 0.1 1008150
05:00+10se2893100 2.1 1007234
08:00+14sse4885100 2.5 1007454
11:00+18s5660100 0.1 10071061
14:00+19s4561100 1.0 10061388
17:00+18sw336697 1.6 10051095
20:00+13w3792100 3.4 1005182
17 may, mon
mon1723:00+12w3796100 1.4 1006327
02:00+11sw249599 1.4 1006137
05:00+9ssw35965 0.1 1007113
08:00+14s23810 0.1 1007332
11:00+18s33571 0.0 10061207
14:00+21sse234720 0.0 10041978
17:00+17se3666100 0.0 1003183
20:00+16se2470100 0.0 100377
18 may, tue
tue1823:00+14wsw2380100 0.2 100287
02:00+11wnw5895100 0.3 1002351
05:00+10wnw5998100 1.4 1002471
08:00+10wnw71296100 6.6 1003823
11:00+10wnw61296100 5.3 10041035
14:00+10wnw71395100 10.0 10061072
17:00+11wnw61294100 2.6 1007883
20:00+10wnw3996100 2.9 1008442
19 may, wed
wed1923:00+10w41096100 0.1 1008332
02:00+9w41097100 0.1 1010364
05:00+8w4109857 0.0 1011348
08:00+11wnw510859 0.0 1012597
11:00+15wnw576659 0.4 10121379
14:00+16wnw576077 1.1 10121580
17:00+14nw57746 1.4 10121086
20:00+11wnw37911 2.0 1013176
20 may, thu
thu2023:00+8wnw35965 0.0 1014109
02:00+7wnw23975 0.0 101466
05:00+6wnw23977 0.0 101555
08:00+11wnw358245 0.0 1015425
11:00+15nw455777 0.1 10151545
14:00+17nw4549100 0.2 10142129
17:00+16nw345466 0.1 10151207
20:00+11nw398659 0.6 1016254